Time,TemperatureF,DewpointF,PressureIn,WindDirection,WindDirectionDegrees,WindSpeedMPH,WindSpeedGustMPH,Humidity,HourlyPrecipIn,Conditions,Clouds,dailyrainin,SolarRadiationWatts/m^2,SoftwareType,DateUTC
2013-10-09 00:15:00,48.0,35.0,29.71,NNW,345,8.0,9.0,61,0.00,,,0.00,0,weatherlink.com 1.10,2013-10-09 06:15:00,
2013-10-09 00:29:00,48.3,35.1,29.72,NNW,341,7.0,9.0,60,0.00,,---,0.00,0.00,VWS V14.01,2013-10-09 06:29:00,
2013-10-09 00:47:00,47.9,34.0,29.72,NNW,348,6.0,8.0,60,0.00,,,0.00,0,weatherlink.com 1.10,2013-10-09 06:47:00,
2013-10-09 00:59:00,47.6,34.4,29.72,NNW,348,8.0,9.0,60,0.00,,---,0.00,0.00,VWS V14.01,2013-10-09 06:59:00,
2013-10-09 01:05:00,47.5,34.0,29.72,NNW,344,7.0,9.0,60,0.00,,,0.00,0,weatherlink.com 1.10,2013-10-09 07:05:00,
2013-10-09 01:21:00,47.6,32.0,29.71,NNW,346,9.0,11.0,56,0.00,,,0.00,0,weatherlink.com 1.10,2013-10-09 07:21:00,
2013-10-09 01:29:00,47.4,32.5,29.72,NNW,341,9.0,11.0,56,0.00,,---,0.00,0.00,VWS V14.01,2013-10-09 07:29:00,
2013-10-09 01:37:00,47.5,31.0,29.72,North,355,9.0,10.0,54,0.00,,,0.00,0,weatherlink.com 1.10,2013-10-09 07:37:00,
2013-10-09 01:53:00,46.1,32.0,29.73,NNW,342,7.0,10.0,58,0.00,,,0.00,0,weatherlink.com 1.10,2013-10-09 07:53:00,
2013-10-09 02:00:00,46.1,31.7,29.73,North,355,10.0,10.0,57,0.00,,---,0.00,0.00,VWS V14.01,2013-10-09 08:00:00,
2013-10-09 02:10:00,46.8,32.0,29.73,NNW,332,8.0,10.0,56,0.00,,,0.00,0,weatherlink.com 1.10,2013-10-09 08:10:00,
2013-10-09 02:27:00,46.8,32.0,29.73,NNW,342,10.0,10.0,56,0.00,,,0.00,0,weatherlink.com 1.10,2013-10-09 08:27:00,
2013-10-09 02:43:00,47.0,30.0,29.73,North,5,4.0,13.0,53,0.00,,,0.00,0,weatherlink.com 1.10,2013-10-09 08:43:00,
2013-10-09 02:59:00,47.0,31.2,29.74,NNW,348,6.0,13.0,54,0.00,,---,0.00,0.00,VWS V14.01,2013-10-09 08:59:00,
2013-10-09 03:17:00,47.1,31.0,29.74,North,355,10.0,14.0,53,0.00,,,0.00,0,weatherlink.com 1.10,2013-10-09 09:17:00,
2013-10-09 03:29:00,46.4,31.1,29.75,NNW,344,6.0,13.0,55,0.00,,---,0.00,0.00,VWS V14.01,2013-10-09 09:29:00,
2013-10-09 03:49:00,46.7,31.0,29.75,NNW,340,7.0,10.0,54,0.00,,,0.00,0,weatherlink.com 1.10,2013-10-09 09:49:00,
2013-10-09 04:00:00,47.2,31.4,29.75,NNW,345,6.0,10.0,54,0.00,,---,0.00,0.00,VWS V14.01,2013-10-09 10:00:00,
2013-10-09 04:05:00,47.3,31.0,29.75,NNW,348,6.0,10.0,54,0.00,,,0.00,0,weatherlink.com 1.10,2013-10-09 10:05:00,
2013-10-09 04:21:00,46.8,31.0,29.75,North,355,4.0,9.0,55,0.00,,,0.00,0,weatherlink.com 1.10,2013-10-09 10:21:00,
2013-10-09 04:29:00,46.3,31.5,29.75,NNW,339,6.0,9.0,56,0.00,,---,0.00,0.00,VWS V14.01,2013-10-09 10:29:00,
2013-10-09 04:37:00,46.1,31.0,29.75,NNW,342,7.0,8.0,56,0.00,,,0.00,0,weatherlink.com 1.10,2013-10-09 10:37:00,
2013-10-09 04:54:00,45.0,31.0,29.76,NNW,335,7.0,9.0,58,0.00,,,0.00,0,weatherlink.com 1.10,2013-10-09 10:54:00,
2013-10-09 04:59:00,45.1,30.8,29.76,NNW,333,7.0,9.0,57,0.00,,---,0.00,0.00,VWS V14.01,2013-10-09 10:59:00,
2013-10-09 05:11:00,45.3,31.0,29.77,NNW,344,7.0,9.0,57,0.00,,,0.00,0,weatherlink.com 1.10,2013-10-09 11:11:00,
2013-10-09 05:28:00,46.5,31.0,29.77,NE,35,11.0,13.0,55,0.00,,,0.00,0,weatherlink.com 1.10,2013-10-09 11:28:00,
2013-10-09 05:43:00,45.4,32.0,29.78,North,351,8.0,12.0,59,0.00,,,0.00,0,weatherlink.com 1.10,2013-10-09 11:43:00,
2013-10-09 05:59:00,43.6,34.5,29.79,North,360,8.0,11.0,70,0.00,,---,0.00,0.00,VWS V14.01,2013-10-09 11:59:00,
2013-10-09 06:18:00,42.5,35.0,29.79,NNW,348,9.0,12.0,75,0.00,,,0.00,0,weatherlink.com 1.10,2013-10-09 12:18:00,
2013-10-09 06:29:00,42.2,35.2,29.79,NNW,348,9.0,12.0,76,0.00,,---,0.00,0.00,VWS V14.01,2013-10-09 12:29:00,
2013-10-09 06:50:00,41.6,35.0,29.80,NNW,344,7.0,12.0,77,0.00,,,0.00,0,weatherlink.com 1.10,2013-10-09 12:50:00,
2013-10-09 06:59:00,41.2,35.2,29.80,North,11,9.0,13.0,79,0.00,,---,0.00,0.00,VWS V14.01,2013-10-09 12:59:00,
2013-10-09 07:06:00,41.1,35.0,29.80,North,355,5.0,12.0,79,0.00,,,0.00,5,weatherlink.com 1.10,2013-10-09 13:06:00,
2013-10-09 07:23:00,40.7,35.0,29.81,North,355,10.0,13.0,81,0.00,,,0.00,12,weatherlink.com 1.10,2013-10-09 13:23:00,
2013-10-09 07:30:00,40.8,35.4,29.82,North,355,8.0,12.0,81,0.00,,---,0.00,26.00,VWS V14.01,2013-10-09 13:30:00,
2013-10-09 07:39:00,40.6,36.0,29.82,NNW,346,9.0,14.0,82,0.00,,,0.00,32,weatherlink.com 1.10,2013-10-09 13:39:00,
2013-10-09 07:56:00,40.0,35.0,29.83,North,355,7.0,13.0,83,0.00,,,0.00,63,weatherlink.com 1.10,2013-10-09 13:56:00,
2013-10-09 08:12:00,40.0,35.0,29.84,NNW,340,10.0,16.0,83,0.00,,,0.00,72,weatherlink.com 1.10,2013-10-09 14:12:00,
2013-10-09 08:29:00,40.2,35.0,29.85,North,360,7.0,13.0,83,0.00,,,0.00,90,weatherlink.com 1.10,2013-10-09 14:29:00,
2013-10-09 08:45:00,40.7,36.0,29.86,North,355,3.0,12.0,83,0.00,,,0.00,118,weatherlink.com 1.10,2013-10-09 14:45:00,
2013-10-09 09:00:00,41.3,36.2,29.86,NNW,342,9.0,13.0,82,0.00,,---,0.00,141.00,VWS V14.01,2013-10-09 15:00:00,
2013-10-09 09:18:00,41.9,37.0,29.87,NNW,342,11.0,15.0,81,0.00,,,0.00,181,weatherlink.com 1.10,2013-10-09 15:18:00,
2013-10-09 09:29:00,42.5,36.8,29.87,North,355,13.0,15.0,80,0.00,,---,0.00,213.00,VWS V14.01,2013-10-09 15:29:00,
2013-10-09 09:35:00,42.8,36.0,29.87,North,5,11.0,14.0,78,0.00,,,0.00,216,weatherlink.com 1.10,2013-10-09 15:35:00,
2013-10-09 09:51:00,43.3,36.0,29.87,North,360,10.0,13.0,75,0.00,,,0.00,229,weatherlink.com 1.10,2013-10-09 15:51:00,
2013-10-09 09:59:00,43.9,37.2,29.88,North,350,7.0,14.0,77,0.00,,---,0.00,250.00,VWS V14.01,2013-10-09 15:59:00,
2013-10-09 10:07:00,44.2,37.0,29.88,North,360,11.0,15.0,77,0.00,,,0.00,257,weatherlink.com 1.10,2013-10-09 16:07:00,
2013-10-09 10:24:00,45.9,37.0,29.88,NNW,344,9.0,14.0,72,0.00,,,0.00,399,weatherlink.com 1.10,2013-10-09 16:24:00,
2013-10-09 10:29:00,45.9,37.4,29.89,NNW,344,9.0,15.0,72,0.00,,---,0.00,343.00,VWS V14.01,2013-10-09 16:29:00,
2013-10-09 10:40:00,45.9,37.0,29.88,NNW,330,8.0,12.0,72,0.00,,,0.00,436,weatherlink.com 1.10,2013-10-09 16:40:00,
2013-10-09 10:57:00,47.0,38.0,29.88,North,355,11.0,13.0,70,0.00,,,0.00,373,weatherlink.com 1.10,2013-10-09 16:57:00,
2013-10-09 11:13:00,49.0,39.0,29.88,NNW,346,13.0,14.0,69,0.00,,,0.00,779,weatherlink.com 1.10,2013-10-09 17:13:00,
2013-10-09 11:29:00,49.1,38.6,29.89,NNE,24,5.0,14.0,67,0.00,,---,0.00,431.00,VWS V14.01,2013-10-09 17:29:00,
2013-10-09 11:47:00,49.7,39.0,29.88,NNE,15,5.0,11.0,68,0.00,,,0.00,577,weatherlink.com 1.10,2013-10-09 17:47:00,
2013-10-09 11:59:00,50.9,40.3,29.88,NE,40,10.0,12.0,67,0.00,,---,0.00,573.00,VWS V14.01,2013-10-09 17:59:00,
2013-10-09 12:19:00,50.0,41.0,29.88,ENE,60,8.0,12.0,71,0.00,,,0.00,538,weatherlink.com 1.10,2013-10-09 18:19:00,
2013-10-09 12:30:00,49.5,39.8,29.88,NE,47,4.0,13.0,69,0.00,,---,0.00,462.00,VWS V14.01,2013-10-09 18:30:00,
2013-10-09 12:36:00,50.0,41.0,29.88,NE,42,9.0,14.0,70,0.00,,,0.00,489,weatherlink.com 1.10,2013-10-09 18:36:00,
2013-10-09 12:53:00,49.1,39.0,29.87,NE,44,11.0,12.0,69,0.00,,,0.00,469,weatherlink.com 1.10,2013-10-09 18:53:00,
2013-10-09 13:00:00,49.3,39.6,29.87,NE,49,10.0,13.0,69,0.00,,---,0.00,343.00,VWS V14.01,2013-10-09 19:00:00,
2013-10-09 13:09:00,49.2,40.0,29.86,NE,47,8.0,13.0,71,0.00,,,0.00,388,weatherlink.com 1.10,2013-10-09 19:09:00,
2013-10-09 13:26:00,49.7,39.0,29.86,NE,42,9.0,13.0,66,0.00,,,0.00,394,weatherlink.com 1.10,2013-10-09 19:26:00,
2013-10-09 13:42:00,49.5,40.0,29.86,NE,55,3.0,14.0,69,0.00,,,0.00,522,weatherlink.com 1.10,2013-10-09 19:42:00,
2013-10-09 13:59:00,51.2,41.0,29.86,NE,50,7.0,11.0,68,0.00,,,0.00,531,weatherlink.com 1.10,2013-10-09 19:59:00,
2013-10-09 14:14:00,49.5,40.0,29.86,ENE,66,5.0,12.0,71,0.00,,,0.00,301,weatherlink.com 1.10,2013-10-09 20:14:00,
2013-10-09 14:30:00,50.0,41.0,29.86,ENE,65,8.0,13.0,71,0.00,,---,0.00,374.00,VWS V14.01,2013-10-09 20:30:00,
2013-10-09 14:48:00,49.9,41.0,29.86,NE,48,8.0,11.0,72,0.00,,,0.00,318,weatherlink.com 1.10,2013-10-09 20:48:00,
2013-10-09 14:59:00,50.6,41.6,29.86,ENE,57,9.0,13.0,71,0.00,,---,0.00,445.00,VWS V14.01,2013-10-09 20:59:00,
2013-10-09 15:20:00,50.2,41.0,29.86,NE,49,6.0,12.0,70,0.00,,,0.00,339,weatherlink.com 1.10,2013-10-09 21:20:00,
2013-10-09 15:29:00,49.7,41.4,29.86,ENE,57,11.0,13.0,73,0.00,,---,0.00,265.00,VWS V14.01,2013-10-09 21:29:00,
2013-10-09 15:37:00,49.5,41.0,29.86,NE,55,9.0,12.0,73,0.00,,,0.00,308,weatherlink.com 1.10,2013-10-09 21:37:00,
2013-10-09 15:53:00,50.3,42.0,29.87,NE,42,11.0,14.0,74,0.00,,,0.00,422,weatherlink.com 1.10,2013-10-09 21:53:00,
2013-10-09 15:59:00,50.6,42.3,29.87,NE,47,7.0,14.0,73,0.00,,---,0.00,364.00,VWS V14.01,2013-10-09 21:59:00,
2013-10-09 16:10:00,49.8,41.0,29.87,ENE,71,8.0,13.0,73,0.00,,,0.00,285,weatherlink.com 1.10,2013-10-09 22:10:00,
2013-10-09 16:26:00,49.0,41.0,29.87,NE,42,5.0,12.0,74,0.00,,,0.00,153,weatherlink.com 1.10,2013-10-09 22:26:00,
2013-10-09 16:43:00,48.2,41.0,29.88,NE,44,8.0,12.0,75,0.00,,,0.00,139,weatherlink.com 1.10,2013-10-09 22:43:00,
2013-10-09 16:59:00,46.7,40.0,29.89,ENE,63,10.0,10.0,77,0.00,,,0.00,69,weatherlink.com 1.10,2013-10-09 22:59:00,
2013-10-09 17:15:00,46.3,40.0,29.90,NE,56,7.0,12.0,79,0.00,,,0.00,40,weatherlink.com 1.10,2013-10-09 23:15:00,
2013-10-09 17:30:00,45.9,39.4,29.91,NE,56,9.0,11.0,78,0.00,,---,0.00,32.00,VWS V14.01,2013-10-09 23:30:00,
2013-10-09 17:49:00,45.4,39.0,29.92,NE,55,3.0,10.0,79,0.00,,,0.00,25,weatherlink.com 1.10,2013-10-09 23:49:00,
2013-10-09 18:00:00,45.1,39.0,29.92,NE,55,8.0,12.0,79,0.00,,---,0.00,12.00,VWS V14.01,2013-10-10 00:00:00,
2013-10-09 18:05:00,44.9,39.0,29.92,NE,50,7.0,11.0,79,0.00,,,0.00,12,weatherlink.com 1.10,2013-10-10 00:05:00,
2013-10-09 18:22:00,44.3,39.0,29.93,ENE,57,5.0,11.0,80,0.00,,,0.00,0,weatherlink.com 1.10,2013-10-10 00:22:00,
2013-10-09 18:29:00,44.1,38.3,29.92,ENE,63,9.0,12.0,80,0.00,,---,0.00,0.00,VWS V14.01,2013-10-10 00:29:00,
2013-10-09 18:38:00,43.9,38.0,29.93,ENE,60,9.0,12.0,81,0.00,,,0.00,0,weatherlink.com 1.10,2013-10-10 00:38:00,
2013-10-09 18:54:00,43.8,39.0,29.93,ENE,58,9.0,12.0,82,0.00,,,0.00,0,weatherlink.com 1.10,2013-10-10 00:54:00,
2013-10-09 18:59:00,43.7,38.6,29.94,ENE,62,10.0,13.0,82,0.00,,---,0.00,0.00,VWS V14.01,2013-10-10 00:59:00,
2013-10-09 19:11:00,43.5,39.0,29.94,ENE,67,10.0,12.0,83,0.00,,,0.00,0,weatherlink.com 1.10,2013-10-10 01:11:00,
2013-10-09 19:27:00,43.4,39.0,29.95,ENE,66,7.0,11.0,84,0.00,,,0.00,0,weatherlink.com 1.10,2013-10-10 01:27:00,
2013-10-09 19:44:00,43.4,39.0,29.96,ENE,66,7.0,8.0,85,0.00,,,0.00,0,weatherlink.com 1.10,2013-10-10 01:44:00,
2013-10-09 19:59:00,42.9,39.0,29.96,ENE,57,4.0,8.0,86,0.00,,---,0.00,0.00,VWS V14.01,2013-10-10 01:59:00,
2013-10-09 20:16:00,42.3,39.0,29.95,NE,44,3.0,8.0,87,0.00,,,0.00,0,weatherlink.com 1.10,2013-10-10 02:16:00,
2013-10-09 20:30:00,41.8,38.5,29.96,NE,45,3.0,7.0,88,0.00,,---,0.00,0.00,VWS V14.01,2013-10-10 02:30:00,
2013-10-09 20:49:00,41.9,39.0,29.95,NE,45,2.0,6.0,88,0.00,,,0.00,0,weatherlink.com 1.10,2013-10-10 02:49:00,
2013-10-09 21:00:00,42.1,39.1,29.94,NE,45,2.0,5.0,89,0.00,,---,0.00,0.00,VWS V14.01,2013-10-10 03:00:00,
2013-10-09 21:05:00,42.1,39.0,29.94,NE,47,4.0,4.0,89,0.00,,,0.00,0,weatherlink.com 1.10,2013-10-10 03:05:00,
2013-10-09 21:22:00,42.2,39.0,29.95,NE,47,2.0,4.0,89,0.00,,,0.00,0,weatherlink.com 1.10,2013-10-10 03:22:00,
2013-10-09 21:30:00,42.0,39.0,29.94,NE,51,3.0,4.0,89,0.00,,---,0.00,0.00,VWS V14.01,2013-10-10 03:30:00,
2013-10-09 21:38:00,41.4,38.0,29.95,NE,53,2.0,4.0,89,0.00,,,0.00,0,weatherlink.com 1.10,2013-10-10 03:38:00,
2013-10-09 21:59:00,39.5,37.0,29.95,NE,53,2.0,3.0,90,0.00,,,0.00,0,weatherlink.com 1.10,2013-10-10 03:59:00,
2013-10-09 22:10:00,38.9,37.0,29.94,NE,53,2.0,3.0,91,0.00,,,0.00,0,weatherlink.com 1.10,2013-10-10 04:10:00,
2013-10-09 22:26:00,39.3,37.0,29.95,NE,53,0.0,3.0,91,0.00,,,0.00,0,weatherlink.com 1.10,2013-10-10 04:26:00,
2013-10-09 22:30:00,39.0,36.6,29.94,NE,53,0.0,3.0,91,0.00,,---,0.00,0.00,VWS V14.01,2013-10-10 04:30:00,
2013-10-09 22:44:00,38.7,37.0,29.94,NE,53,0.0,0.0,93,0.00,,,0.00,0,weatherlink.com 1.10,2013-10-10 04:44:00,
2013-10-09 22:59:00,38.5,36.7,29.93,NE,53,0.0,2.0,93,0.00,,---,0.00,0.00,VWS V14.01,2013-10-10 04:59:00,
2013-10-09 23:16:00,38.9,37.0,29.93,NE,53,0.0,0.0,93,0.00,,,0.00,0,weatherlink.com 1.10,2013-10-10 05:16:00,
2013-10-09 23:29:00,39.2,37.6,29.93,NE,53,0.0,0.0,94,0.00,,---,0.00,0.00,VWS V14.01,2013-10-10 05:29:00,
2013-10-09 23:49:00,38.4,37.0,29.93,NE,53,2.0,3.0,93,0.00,,,0.00,0,weatherlink.com 1.10,2013-10-10 05:49:00,